Regional Weather Roundup
Issued by NWS

Home | Current Version | Previous Version | Text Only | Print | Product List | Glossary Off
Versions: 1 2 3 4 5 6 7 8 9 10 11 12 13 14 15 16 17 18 19 20 21 22 23 24 25 26 27 28 29 30 31 32 33 34 35 36 37 38 39 40 41 42 43 44 45 46 47 48 49 50

000
ASUS43 KBIS 222310
RWRND

NORTH DAKOTA REGIONAL WEATHER ROUNDUP
NATIONAL WEATHER SERVICE BISMARCK ND
500 PM CST MON JAN 22 2018

NOTE: "FAIR" INDICATES FEW OR NO CLOUDS BELOW 12,000 FEET WITH NO
SIGNIFICANT WEATHER AND/OR OBSTRUCTIONS TO VISIBILITY.


NDZ001>003-009>011-017-230000-
NORTHWEST NORTH DAKOTA

CITY           SKY/WX    TMP DP  RH WIND       PRES   REMARKS
WILLISTON      CLEAR     26  18  71 SW6       29.98R WCI  19
MINOT          CLOUDY    21  18  88 S8        30.00S FOG     WCI  11
MINOT AFB      CLOUDY    19  17  91 S6        30.00R WCI  11
$$

NDZ018>021-031>035-040>046-230000-
SOUTHWEST NORTH DAKOTA

CITY           SKY/WX    TMP DP  RH WIND       PRES   REMARKS
BISMARCK       CLOUDY    23  21  92 CALM      30.04R FOG
DICKINSON      CLEAR     30  21  69 W10       29.95R
GARRISON         N/A     17  15  92 S3        30.00R
HETTINGER ARPT CLEAR     33  21  61 W7        29.99R
$$

NDZ004>008-012>016-024-026-027-054-230000-
NORTHEAST NORTH DAKOTA

CITY           SKY/WX    TMP DP  RH WIND       PRES   REMARKS
GRAND FORKS    CLOUDY    26  21  81 NE13      30.07R WCI  15
GRND FRKS AFB  CLOUDY    25  20  81 NE13      30.07R WCI  13
DEVILS LAKE    CLOUDY    21  19  92 NE5       30.05R WCI  15
$$

NDZ022-023-025-028>030-036>039-047>053-230000-
SOUTHEAST NORTH DAKOTA

CITY           SKY/WX    TMP DP  RH WIND       PRES   REMARKS
FARGO          CLOUDY    26  21  81 N17       30.01R WCI  13
JAMESTOWN      CLOUDY    22  20  92 N10       30.03R WCI  11
$$





USA.gov is the U.S. government's official web portal to all federal, state and local government web resources and services.